Location: Unspecified
(0.0000°N, 0.0000°E)
Time: 23:05:38
(UTC+00:00)

Envisat - Pass Details

Date: 25 November 2022
Orbit: 763 x 765 km, 98.2° (Epoch: 02 December)

Event Time Altitude Azimuth Distance (km) Brightness Sun altitude
Exits shadow 04:37:47 26° 288° (WNW) 1,472 3.9 -16.1°
Maximum altitude 04:38:05 26° 282° (WNW) 1,466 3.9 -16.1°
Drops below altitude 10° 04:42:15 10° 226° (SW) 2,298 5.2 -15.1°
Sets 04:44:54 0° 214° (SW) 3,227 6.1 -14.5°
